Location: Dal�� Lhota
(48.7500°N, 14.0167°E)
Time: 09:25:48
(UTC+00:00)

Explorer 7 - Pass Details

Date: 10 August 2021
Orbit: 484 x 676 km, 50.3° (Epoch: 21 September)

Event Time Altitude Azimuth Distance (km) Brightness Sun altitude
Rises 04:14:21 0° 281° (W) 2,557 9.7 2.9°
Reaches altitude 10° 04:16:30 10° 283° (WNW) 1,686 8.8 3.2°
Maximum altitude 04:20:18 75° 8° (N) 526 6.9 3.8°
Drops below altitude 10° 04:24:16 10° 95° (E) 1,757 10.8 4.4°
Sets 04:26:32 0° 97° (E) 2,675 11.7 4.8°
